DECAYED

STARLINK-1354, 45562 (Decayed)

Orbit data source: Space-Track

STARLINK-1354, 45562 was a payload satellite owned by SpaceX/Seattle (US) in LEO that was launched on Wed, 22 Apr 2020 UTC via an FALCON 9 launch vehicle from the Air Force Eastern Test Range (AFETR). Payload-class satellites include a variety of spacecraft equipped with specific instruments for various scientific and technological missions. These include communications satellites like Starlink; space stations such as the ISS; scientific satellites like the Hubble; Earth observation satellites from companies like Planet Labs, Umbra, and HawkEye 360; GPS; miniature CubeSats for education and research; and military/defense satellites.

Not visible in the next 10 days
Identifier
45562, 2020-025AH
Orbit
Decayed
Last TLE update
4 months ago
Origin
Manufacturer
SpaceX/Seattle
Mission
Decayed Commercial Communications
Bus & Motor
STARLINK, Unknown motor
Mass
260 kg wet, ~248 kg dry
Launch date (UTC)
2020-04-22 (5 years ago)
Launch vehicle
FALCON 9
Launch site
Air Force Eastern Test Range (AFETR)
Object type
Payload
Rocket body
Debris
Shape & HBR
Box + 1 Pan, 8.86 m
Radar Cross Section
13.562 m², Large (>1 m²)

Expand to show TLE details & history

TLE from 4 months ago
0 STARLINK-1354
1 45562U 20025AH  24366.96042065  .15502269  12533-4  30349-3 0  9994
2 45562  53.0383 192.3888 0007225 262.2469 252.4285 16.46749353260040
Epoch: 2024-12-31T23:03Z
Definitive object data (Epoch: 2024-12-31T23:03:00.344Z)
Latitude
20.09142°
Longitude
-90.1055°
Altitude
149.825 km
Speed
7.819 km/s
True Right ascension
23h 46m 01s
True Declination
19° 58' 14"
Sunlit
Object was in daylight at TLE epoch
Visualization observer readout
Visualization observer readout
Orbital elements
Apogee altitude
152.914 km
Perigee altitude
143.484 km
Semi-major axis
6,526.336 km
Eccentricity
0.0007225
Inclination
53.0383°
RAAN
192.3888°
Arg. of periapsis
262.2469°
True anomaly
252.34959°
Mean anomaly
252.4285°
Eccentric anomaly
252.38904°
Mean motion
4.1166 °/min
BSTAR
0.00030349
Orbital period
87.45 mins
Loading maneuver chart data...
Loading SW <> Apogee altitude chart data...
Loading historical data...
Loading historical data...
Loading historical data...
Loading historical data...
Loading historical data...
Loading historical data...
Loading historical data...

STARLINK-1354 Visibility forecast

Observer location: undefined°, undefined°

This satellite is decayed
Span
Click to sort rows by Start time (UTC) header in descending order
Start Az.
Max El. time (UTC)
Max El. Az.
Max El.
End time (UTC)
End Az.
|